Location: Kitchener-Waterloo
(43.4500°N, 80.5000°W)
Time: 09:02:40
(UTC-04:00)

Amateur Radio Satellites - All Passes

Search period start: 27 June 2016 08:32
Search period end: 28 June 2016 08:32
Location: Kitchener-Waterloo, 43.4500°N, 80.5000°W

Satellite Date Start Highest point End Downlink Frequencies (MHz)
Time Altitude Azimuth
AO-7 27 Jun 08:34:18 08:36:00 11° 323° (NW) 08:37:43 29.400- 29.500
LilacSat-2 27 Jun 08:35:20 08:38:33 25° 291° (WNW) 08:41:45 437.200
PHONESAT 2.4 27 Jun 08:42:56 08:45:34 26° 162° (SSE) 08:48:14 2401.200-2431.200
CANX-2 27 Jun 08:52:22 08:56:18 34° 97° (E) 09:00:12 2200.000
CUTE-I 27 Jun 08:54:26 08:59:04 30° 295° (WNW) 09:03:40 437.470
GONETS M04 27 Jun 08:56:04 09:00:25 15° 286° (WNW) 09:04:46
COMPASS 1 27 Jun 09:01:11 09:04:12 19° 92° (E) 09:07:12 437.405
CINEMA 3 27 Jun 09:06:32 09:10:56 50° 100° (E) 09:15:30 145.822/145.860
CUTE 1.7 + AOD 2 27 Jun 09:12:32 09:16:43 50° 99° (E) 09:20:51 437.475
CUBEBUG 2 27 Jun 09:15:21 09:18:49 21° 93° (E) 09:22:19 437.445
SEEDS 27 Jun 09:19:34 09:23:38 42° 98° (E) 09:27:38 437.485
ANTELSAT 27 Jun 09:27:45 09:29:23 12° 60° (ENE) 09:31:01 437.575/2403.000
ISS 27 Jun 09:27:45 09:30:24 23° 136° (SE) 09:33:03 145.825
NOAA 15 27 Jun 09:30:14 09:32:04 12° 304° (NW) 09:33:55 137.62
DOVE 4 27 Jun 09:37:11 09:40:40 25° 292° (WNW) 09:44:15 437.250
HO-68 27 Jun 09:41:58 09:49:14 82° 107° (ESE) 09:56:27 435.675
NOAA 18 27 Jun 09:42:26 09:45:01 13° 305° (NW) 09:47:35 137.9125
ZACube-1 27 Jun 09:48:46 09:52:13 21° 93° (E) 09:55:41 437.345
AUBIESAT-1 27 Jun 09:58:58 10:02:13 24° 102° (ESE) 10:05:37 437.475
Oscar 11 27 Jun 10:01:35 10:05:23 28° 95° (E) 10:09:09 145.826/435.025
PRISM 27 Jun 10:02:11 10:05:19 21° 266° (W) 10:08:28 437.425
AAUSAT CUBESAT 2 27 Jun 10:03:13 10:07:25 75° 103° (ESE) 10:11:33 437.432
UWE-3 27 Jun 10:05:28 10:09:53 46° 99° (E) 10:14:21 435.000/436.395/437.385
FUNcube-1 27 Jun 10:06:50 10:10:50 30° 96° (E) 10:14:51 145.935
CUSAT 1 27 Jun 10:10:02 10:15:40 22° 293° (WNW) 10:20:43 437.405
DANDE 27 Jun 10:15:06 10:22:53 41° 289° (WNW) 10:30:10 436.750
TIGRISAT 27 Jun 10:17:09 10:21:03 35° 69° (ENE) 10:25:01 435.000
PHONESAT 2.4 27 Jun 10:18:55 10:21:54 48° 178° (S) 10:24:53 2401.200-2431.200
UNISAT 6 27 Jun 10:21:34 10:25:36 41° 71° (ENE) 10:29:44 437.425
Cosmos 2491 27 Jun 10:24:10 10:27:21 12° 52° (NE) 10:30:32 435.465 / 435.565
DELFI C3 27 Jun 10:28:34 10:31:52 24° 95° (E) 10:35:07 145.870
CANX-2 27 Jun 10:28:36 10:31:58 23° 293° (WNW) 10:35:19 2200.000
COMPASS 1 27 Jun 10:36:00 10:39:54 38° 289° (WNW) 10:43:46 437.405
M-CUBED/EXP-1 PRIME 27 Jun 10:36:27 10:40:16 81° 108° (ESE) 10:44:25 437.505
CINEMA 3 27 Jun 10:44:41 10:47:44 18° 295° (WNW) 10:50:53 145.822/145.860
CUTE 1.7 + AOD 2 27 Jun 10:49:27 10:52:10 17° 296° (WNW) 10:54:50 437.475
CUBEBUG 2 27 Jun 10:51:15 10:55:35 43° 288° (WNW) 10:59:59 437.445
NANOSAT C BR1 27 Jun 10:55:41 10:58:18 16° 64° (ENE) 11:00:56 145.865
SEEDS 27 Jun 10:56:05 10:59:01 18° 295° (WNW) 11:01:56 437.485
QB50P1 27 Jun 10:57:32 11:00:21 18° 64° (ENE) 11:03:12 145.935-145.965
BEESAT 3 27 Jun 10:59:13 11:01:42 16° 40° (NE) 11:04:11 437.485
POPSAT HIP 1 27 Jun 11:00:28 11:03:24 19° 65° (ENE) 11:06:22 437.405
ANTELSAT 27 Jun 11:01:09 11:05:27 75° 258° (WSW) 11:09:51 437.575/2403.000
ISS 27 Jun 11:03:28 11:06:40 50° 333° (NNW) 11:09:51 145.825
QB50P2 27 Jun 11:11:44 11:15:13 26° 68° (ENE) 11:18:44 145.880/145.840
POLYITAN 1 27 Jun 11:14:20 11:17:50 27° 68° (ENE) 11:21:22 437.675
HUMSAT D 27 Jun 11:14:55 11:18:59 39° 98° (E) 11:23:01 437.325/437.525
DUCHIFAT 1 27 Jun 11:16:06 11:19:29 25° 67° (ENE) 11:22:53 145.980
PCSat 27 Jun 11:17:13 11:22:04 31° 48° (NE) 11:26:52 145.827
ZACube-1 27 Jun 11:24:24 11:28:39 41° 289° (WNW) 11:32:55 437.345
HO-68 27 Jun 11:30:55 11:36:09 22° 305° (NW) 11:41:23 435.675
AUBIESAT-1 27 Jun 11:33:19 11:36:39 29° 295° (WNW) 11:40:13 437.475
BEESAT 2 27 Jun 11:33:46 11:36:42 19° 42° (NE) 11:39:36 435.950
Oscar 11 27 Jun 11:37:44 11:41:27 28° 292° (WNW) 11:45:08 145.826/435.025
AAUSAT CUBESAT 2 27 Jun 11:41:02 11:42:17 11° 299° (WNW) 11:43:32 437.432
UWE-3 27 Jun 11:42:43 11:46:02 20° 295° (WNW) 11:49:22 435.000/436.395/437.385
FUNcube-1 27 Jun 11:43:07 11:47:00 29° 292° (WNW) 11:50:54 145.935
O/OREOS (USA 219) 27 Jun 11:53:33 11:55:08 12° 48° (NE) 11:56:43 437.305
TIGRISAT 27 Jun 11:54:29 11:57:50 22° 267° (W) 12:01:14 435.000
PHONESAT 2.4 27 Jun 11:55:27 11:58:16 32° 195° (SSW) 12:01:04 2401.200-2431.200
UNISAT 6 27 Jun 11:59:29 12:02:31 19° 268° (W) 12:05:38 437.425
DELFI C3 27 Jun 12:03:17 12:06:40 27° 292° (WNW) 12:10:03 145.870
YUBILEINY 27 Jun 12:08:12 12:13:59 20° 77° (ENE) 12:19:47 435.215
M-CUBED/EXP-1 PRIME 27 Jun 12:13:51 12:14:23 10° 303° (WNW) 12:14:55 437.505
JAS-2 27 Jun 12:14:14 12:21:10 40° 66° (ENE) 12:27:33 435.910
ESTCUBE 1 27 Jun 12:17:36 12:21:41 33° 96° (E) 12:25:44 437.505/2401.250
BUGSAT 1 27 Jun 12:17:39 12:21:32 51° 73° (ENE) 12:25:26 437.445
Cosmos 2491 27 Jun 12:17:49 12:26:25 59° 76° (ENE) 12:34:59 435.465 / 435.565
RS-15 27 Jun 12:19:58 12:30:48 54° 112° (ESE) 12:42:13 29.354- 29.394
AISAT 27 Jun 12:28:00 12:31:45 27° 96° (E) 12:35:30 437.250
NANOSAT C BR1 27 Jun 12:29:37 12:33:39 48° 260° (W) 12:37:44 145.865
Oscar 19 27 Jun 12:30:18 12:33:18 16° 59° (ENE) 12:36:19 437.125/150
QB50P1 27 Jun 12:31:50 12:35:49 43° 261° (W) 12:39:50 145.935-145.965
POPSAT HIP 1 27 Jun 12:34:58 12:38:54 40° 262° (W) 12:42:53 437.405
BEESAT 3 27 Jun 12:35:53 12:39:50 69° 239° (WSW) 12:43:45 437.485
UKube-1 27 Jun 12:36:32 12:39:43 20° 94° (E) 12:42:53 .
ISS 27 Jun 12:41:07 12:43:39 20° 353° (N) 12:46:10 145.825
SPROUT 27 Jun 12:41:14 12:43:55 16° 92° (E) 12:46:35 437.525
QB50P2 27 Jun 12:47:19 12:50:57 28° 264° (W) 12:54:36 145.880/145.840
POLYITAN 1 27 Jun 12:49:59 12:53:34 27° 264° (W) 12:57:12 437.675
HUMSAT D 27 Jun 12:51:08 12:54:20 21° 294° (WNW) 12:57:33 437.325/437.525
DUCHIFAT 1 27 Jun 12:51:24 12:55:04 29° 264° (W) 12:58:46 145.980
DX 1 27 Jun 12:53:03 12:57:05 37° 98° (E) 13:01:05 434.975-435.025
PCSat 27 Jun 13:00:28 13:05:36 44° 247° (WSW) 13:10:41 145.827
50 SAT 27 Jun 13:05:26 13:09:10 80° 103° (ESE) 13:12:50 437.505
BEESAT 2 27 Jun 13:10:55 13:14:50 53° 240° (WSW) 13:18:42 435.950
CUBEBUG 1 27 Jun 13:18:59 13:23:20 80° 284° (WNW) 13:27:38 437.445
VELOX 1 27 Jun 13:23:15 13:27:40 81° 283° (WNW) 13:32:02 145.980
O/OREOS (USA 219) 27 Jun 13:30:45 13:35:15 86° 65° (ENE) 13:39:45 437.305
PHONESAT 2.4 27 Jun 13:33:44 13:34:19 10° 210° (SSW) 13:34:54 2401.200-2431.200
AIST 2 27 Jun 13:41:19 13:44:40 23° 44° (NE) 13:48:00 435.215
ESTCUBE 1 27 Jun 13:54:39 13:58:21 26° 294° (WNW) 14:02:02 437.505/2401.250
BUGSAT 1 27 Jun 13:55:20 13:57:13 13° 269° (W) 13:59:07 437.445
AO-7 27 Jun 13:56:20 14:01:33 19° 46° (NE) 14:06:47 29.400- 29.500
JAS-2 27 Jun 13:58:46 14:06:03 45° 262° (W) 14:12:50 435.910
YUBILEINY 27 Jun 14:00:50 14:09:34 86° 279° (W) 14:18:23 435.215
AISAT 27 Jun 14:04:24 14:08:12 29° 292° (WNW) 14:11:59 437.250
TISAT 1 27 Jun 14:05:50 14:09:40 33° 97° (E) 14:13:29 437.305
Cosmos 2504 27 Jun 14:06:47 14:13:56 36° 84° (E) 14:21:31 435.465 / 435.565
Oscar 19 27 Jun 14:06:52 14:12:01 75° 257° (WSW) 14:17:11 437.125/150
UKube-1 27 Jun 14:11:53 14:15:54 38° 290° (WNW) 14:19:53 .
Gurwin Techsat 1B 27 Jun 14:12:45 14:17:55 56° 71° (ENE) 14:23:08 435.225
Cosmos 2491 27 Jun 14:15:25 14:22:44 32° 277° (W) 14:30:03 435.465 / 435.565
SPROUT 27 Jun 14:16:00 14:20:07 47° 288° (WNW) 14:24:13 437.525
ISS 27 Jun 14:18:10 14:20:53 23° 13° (NNE) 14:23:35 145.825
ITAMSAT 1 27 Jun 14:27:08 14:31:36 30° 65° (ENE) 14:36:05 435.822/435.867
DX 1 27 Jun 14:29:44 14:33:03 22° 295° (WNW) 14:36:22 434.975-435.025
RS-15 27 Jun 14:32:05 14:43:20 54° 317° (NW) 14:55:14 29.354- 29.394
AIST 2 27 Jun 15:19:22 15:23:20 44° 242° (WSW) 15:27:17 435.215
SWISSCUBE 27 Jun 15:29:49 15:34:33 55° 101° (E) 15:39:14 437.505
SO-50 27 Jun 15:33:58 15:35:46 12° 107° (ESE) 15:37:34 436.795
TISAT 1 27 Jun 15:41:51 15:45:08 22° 294° (WNW) 15:48:25 437.305
AO-7 27 Jun 15:44:39 15:52:54 71° 68° (ENE) 16:01:14 29.400- 29.500
ISS 27 Jun 15:54:25 15:57:42 81° 34° (NE) 16:00:58 145.825
Gurwin Techsat 1B 27 Jun 15:54:27 15:58:14 20° 268° (W) 16:02:02 435.225
BEESAT 27 Jun 15:55:13 16:00:03 88° 101° (E) 16:04:50 436.000
ITUPSAT 1 27 Jun 15:55:23 16:00:14 86° 107° (ESE) 16:05:02 437.325
HORYU 2 27 Jun 15:55:43 15:57:24 12° 59° (ENE) 15:59:05 437.375
Cosmos 2504 27 Jun 15:59:06 16:06:57 52° 286° (WNW) 16:15:25 435.465 / 435.565
YUBILEINY 27 Jun 16:01:50 16:07:46 20° 300° (WNW) 16:13:46 435.215
ITAMSAT 1 27 Jun 16:06:07 16:10:56 38° 263° (W) 16:15:48 435.822/435.867
MOZHAYETS 4 27 Jun 16:45:48 16:50:04 35° 96° (E) 16:54:17
RS-15 27 Jun 16:49:41 16:59:28 28° 349° (N) 17:09:33 29.354- 29.394
CUTE-I 27 Jun 17:01:54 17:03:12 11° 55° (NE) 17:04:31 437.470
KKS-1 27 Jun 17:04:30 17:08:54 58° 101° (E) 17:13:16 437.445
SWISSCUBE 27 Jun 17:08:38 17:11:55 19° 298° (WNW) 17:15:12 437.505
SO-50 27 Jun 17:10:37 17:15:32 90° 291° (WNW) 17:20:26 436.795
BRITE-PL 27 Jun 17:21:04 17:24:19 18° 65° (ENE) 17:27:25 437.365/2234.400
AIST 1 27 Jun 17:24:03 17:27:53 32° 91° (E) 17:31:43
HORYU 2 27 Jun 17:28:53 17:33:18 79° 255° (WSW) 17:37:46 437.375
NOAA 15 27 Jun 17:30:39 17:34:58 26° 64° (ENE) 17:39:18 137.62
ISS 27 Jun 17:32:03 17:33:43 13° 228° (SW) 17:35:22 145.825
BEESAT 27 Jun 17:35:13 17:37:07 12° 302° (WNW) 17:39:00 436.000
ITUPSAT 1 27 Jun 17:35:21 17:37:21 13° 302° (WNW) 17:39:21 437.325
AO-7 27 Jun 17:39:38 17:46:20 27° 266° (W) 17:53:07 29.400- 29.500
STARS 27 Jun 17:39:59 17:44:24 71° 103° (ESE) 17:48:47 437.465
LilacSat-2 27 Jun 17:45:09 17:47:24 15° 65° (ENE) 17:49:40 437.200
NOAA 18 27 Jun 17:47:40 17:52:24 31° 64° (ENE) 17:57:10 137.9125
GOMX 1 27 Jun 18:01:00 18:04:05 18° 65° (ENE) 18:07:04 467.674
Cosmos 2504 27 Jun 18:01:03 18:02:53 11° 310° (NW) 18:04:45 435.465 / 435.565
Cubesat XI-IV 27 Jun 18:02:49 18:07:38 36° 67° (ENE) 18:12:29 437.490
GONETS M04 27 Jun 18:04:19 18:11:05 26° 81° (E) 18:17:51
CUBESAT XI-V 27 Jun 18:10:09 18:14:17 31° 96° (E) 18:18:22 437.345
MOZHAYETS 4 27 Jun 18:23:15 18:27:05 26° 294° (WNW) 18:30:53
HO-68 27 Jun 18:28:11 18:31:54 15° 49° (NE) 18:35:36 435.675
CUTE-I 27 Jun 18:36:58 18:42:16 71° 73° (ENE) 18:47:38 437.470
KKS-1 27 Jun 18:42:22 18:45:01 16° 298° (WNW) 18:47:38 437.445
Cosmos 2499 27 Jun 18:46:40 18:53:45 33° 83° (E) 19:01:13 435.465 / 435.565
SO-50 27 Jun 18:53:22 18:56:41 18° 323° (NW) 19:00:01 436.795
BRITE-PL 27 Jun 18:57:25 19:02:27 58° 259° (W) 19:07:08 437.365/2234.400
CUSAT 1 27 Jun 19:01:44 19:05:30 42° 73° (ENE) 19:08:29 437.405
AIST 1 27 Jun 19:02:06 19:05:32 22° 288° (WNW) 19:08:57
DOVE 4 27 Jun 19:06:03 19:10:00 35° 71° (ENE) 19:13:51 437.250
RS-15 27 Jun 19:06:21 19:17:02 33° 24° (NNE) 19:27:48 29.354- 29.394
NOAA 15 27 Jun 19:09:28 19:14:31 44° 261° (W) 19:19:34 137.62
DANDE 27 Jun 19:13:26 19:17:58 28° 66° (ENE) 19:21:31 436.750
LilacSat-2 27 Jun 19:17:48 19:21:22 41° 262° (W) 19:25:00 437.200
STARS 27 Jun 19:18:10 19:20:11 13° 299° (WNW) 19:22:12 437.465
NOAA 18 27 Jun 19:27:51 19:32:55 39° 262° (W) 19:38:03 137.9125
GOMX 1 27 Jun 19:37:24 19:41:55 47° 261° (W) 19:46:09 467.674
Cubesat XI-IV 27 Jun 19:42:58 19:47:42 32° 264° (W) 19:52:29 437.490
CANX-2 27 Jun 19:46:13 19:49:54 29° 69° (ENE) 19:53:38 2200.000
CUBESAT XI-V 27 Jun 19:47:39 19:51:34 28° 293° (WNW) 19:55:28 437.345
COMPASS 1 27 Jun 19:53:35 19:56:11 16° 64° (ENE) 19:58:48 437.405
GONETS M04 27 Jun 19:58:26 20:07:06 69° 281° (WNW) 20:15:48
CUTE 1.7 + AOD 2 27 Jun 20:06:04 20:10:04 40° 71° (ENE) 20:14:06 437.475
CINEMA 3 27 Jun 20:09:37 20:13:36 49° 73° (ENE) 20:17:38 145.822/145.860
HO-68 27 Jun 20:11:15 20:18:19 68° 70° (ENE) 20:25:27 435.675
SEEDS 27 Jun 20:12:14 20:16:05 34° 70° (ENE) 20:19:57 437.485
CUBEBUG 2 27 Jun 20:15:19 20:18:11 18° 64° (ENE) 20:21:06 437.445
CUTE-I 27 Jun 20:19:41 20:22:51 16° 270° (W) 20:26:01 437.470
Cosmos 2499 27 Jun 20:38:12 20:46:21 58° 284° (WNW) 20:55:04 435.465 / 435.565
STRAND 1 27 Jun 20:40:57 20:46:08 72° 102° (ESE) 20:51:15 437.568
DOVE 4 27 Jun 20:44:36 20:47:50 20° 266° (W) 20:50:59 437.250
ZACube-1 27 Jun 20:46:18 20:49:12 18° 64° (ENE) 20:52:09 437.345
AUBIESAT-1 27 Jun 20:46:47 20:49:44 31° 65° (ENE) 20:52:43 437.475
AAUSAT CUBESAT 2 27 Jun 20:54:09 20:58:15 55° 73° (ENE) 21:02:23 437.432
DANDE 27 Jun 20:56:28 21:00:41 26° 275° (W) 21:04:02 436.750
Oscar 11 27 Jun 20:57:30 21:01:06 26° 67° (ENE) 21:04:44 145.826/435.025
UWE-3 27 Jun 21:03:43 21:07:37 40° 71° (ENE) 21:11:38 435.000/436.395/437.385
FUNcube-1 27 Jun 21:03:46 21:07:15 26° 67° (ENE) 21:10:47 145.935
AO-85 27 Jun 21:04:23 21:06:34 12° 106° (ESE) 21:08:45 145.980
DELFI C3 27 Jun 21:16:04 21:18:50 18° 65° (ENE) 21:21:36 145.870
RS-15 27 Jun 21:19:37 21:32:01 75° 53° (NE) 21:44:19 29.354- 29.394
CANX-2 27 Jun 21:22:06 21:25:44 26° 265° (W) 21:29:23 2200.000
M-CUBED/EXP-1 PRIME 27 Jun 21:24:58 21:28:11 58° 254° (WSW) 21:31:25 437.505
COMPASS 1 27 Jun 21:27:16 21:31:21 49° 261° (W) 21:35:29 437.405
PRISM 27 Jun 21:41:23 21:45:21 47° 100° (E) 21:49:15 437.425
CUTE 1.7 + AOD 2 27 Jun 21:43:03 21:46:05 19° 268° (W) 21:49:08 437.475
SEEDS 27 Jun 21:48:33 21:51:51 22° 267° (W) 21:55:11 437.485
CINEMA 3 27 Jun 21:48:50 21:51:04 14° 269° (W) 21:53:19 145.822/145.860
CUBEBUG 2 27 Jun 21:50:34 21:54:30 41° 262° (W) 21:58:33 437.445
HO-68 27 Jun 22:01:04 22:06:36 24° 268° (W) 22:12:11 435.675
GONETS M04 27 Jun 22:01:14 22:05:48 15° 304° (NW) 22:10:22
HUMSAT D 27 Jun 22:07:18 22:10:59 31° 69° (ENE) 22:14:43 437.325/437.525
YUBILEINY 27 Jun 22:17:42 22:18:51 10° 50° (NE) 22:19:59 435.215
ZACube-1 27 Jun 22:21:10 22:25:09 43° 262° (W) 22:29:16 437.345
STRAND 1 27 Jun 22:21:34 22:24:43 16° 300° (WNW) 22:27:50 437.568
AUBIESAT-1 27 Jun 22:22:33 22:24:23 14° 262° (W) 22:26:14 437.475
AAUSAT CUBESAT 2 27 Jun 22:32:02 22:34:05 13° 270° (W) 22:36:07 437.432
Oscar 11 27 Jun 22:33:18 22:37:08 30° 264° (W) 22:40:59 145.826/435.025
Cosmos 2499 27 Jun 22:38:15 22:41:46 13° 308° (NW) 22:45:21 435.465 / 435.565
FUNcube-1 27 Jun 22:39:44 22:43:24 29° 265° (W) 22:47:09 145.935
AO-85 27 Jun 22:40:54 22:46:21 83° 123° (ESE) 22:51:37 145.980
UWE-3 27 Jun 22:41:23 22:44:16 18° 268° (W) 22:47:15 435.000/436.395/437.385
CUBEBUG 1 27 Jun 22:43:25 22:44:25 11° 60° (ENE) 22:45:24 437.445
VELOX 1 27 Jun 22:48:21 22:49:54 12° 60° (ENE) 22:51:26 145.980
DELFI C3 27 Jun 22:49:36 22:53:24 39° 262° (W) 22:57:14 145.870
ANTELSAT 27 Jun 22:52:01 22:55:38 22° 93° (E) 22:59:15 437.575/2403.000
PRISM 27 Jun 23:17:46 23:20:17 16° 297° (WNW) 23:22:47 437.425
ESTCUBE 1 27 Jun 23:18:03 23:22:11 35° 69° (ENE) 23:26:19 437.505/2401.250
AISAT 27 Jun 23:26:27 23:30:14 29° 68° (ENE) 23:34:01 437.250
Cosmos 2491 27 Jun 23:30:52 23:33:36 12° 72° (ENE) 23:36:20 435.465 / 435.565
UKube-1 27 Jun 23:32:19 23:35:31 21° 65° (ENE) 23:38:43 .
RS-15 27 Jun 23:33:02 23:43:32 35° 255° (WSW) 23:53:59 29.354- 29.394
SPROUT 27 Jun 23:36:28 23:38:56 15° 63° (ENE) 23:41:24 437.525
TIGRISAT 27 Jun 23:43:11 23:47:49 68° 102° (ESE) 23:52:30 435.000
HUMSAT D 27 Jun 23:43:16 23:46:37 23° 266° (W) 23:50:03 437.325/437.525
50 SAT 27 Jun 23:44:12 23:47:42 40° 72° (ENE) 23:51:14 437.505
UNISAT 6 27 Jun 23:48:00 23:52:39 81° 102° (ESE) 23:57:22 437.425
DX 1 27 Jun 23:49:31 23:53:31 37° 69° (ENE) 23:57:32 434.975-435.025
Cosmos 2504 27 Jun 23:58:29 00:03:23 16° 55° (NE) 00:08:13 435.465 / 435.565
SO-50 28 Jun 00:01:36 00:04:59 19° 37° (NE) 00:08:17 436.795
YUBILEINY 28 Jun 00:09:39 00:18:14 51° 75° (ENE) 00:26:45 435.215
NANOSAT C BR1 28 Jun 00:13:08 00:16:34 24° 94° (E) 00:20:01 145.865
QB50P1 28 Jun 00:15:28 00:19:05 26° 95° (E) 00:22:41 145.935-145.965
CUBEBUG 1 28 Jun 00:15:40 00:20:02 85° 254° (WSW) 00:24:24 437.445
POPSAT HIP 1 28 Jun 00:18:32 00:22:14 28° 96° (E) 00:25:54 437.405
VELOX 1 28 Jun 00:21:18 00:25:44 80° 258° (WSW) 00:30:10 145.980
AO-85 28 Jun 00:23:25 00:27:27 21° 321° (NW) 00:31:20 145.980
ANTELSAT 28 Jun 00:28:07 00:32:28 41° 290° (WNW) 00:36:51 437.575/2403.000
QB50P2 28 Jun 00:30:22 00:34:25 40° 98° (E) 00:38:27 145.880/145.840
POLYITAN 1 28 Jun 00:32:59 00:37:03 41° 98° (E) 00:41:06 437.675
DUCHIFAT 1 28 Jun 00:33:47 00:37:43 37° 98° (E) 00:41:40 145.980
ESTCUBE 1 28 Jun 00:55:23 00:59:03 24° 266° (W) 01:02:44 437.505/2401.250
TISAT 1 28 Jun 00:58:40 01:02:16 29° 68° (ENE) 01:05:53 437.305
AISAT 28 Jun 01:02:53 01:06:40 28° 264° (W) 01:10:29 437.250
UKube-1 28 Jun 01:07:16 01:11:19 39° 262° (W) 01:15:22 .
JAS-2 28 Jun 01:08:35 01:12:59 23° 91° (E) 01:17:07 435.910
SPROUT 28 Jun 01:10:17 01:14:27 54° 260° (W) 01:18:38 437.525
50 SAT 28 Jun 01:19:33 01:21:35 14° 268° (W) 01:23:37 437.505
Cosmos 2491 28 Jun 01:19:57 01:28:35 65° 92° (E) 01:37:11 435.465 / 435.565
TIGRISAT 28 Jun 01:21:25 01:23:58 15° 298° (WNW) 01:26:33 435.000
DX 1 28 Jun 01:26:32 01:29:49 21° 266° (W) 01:33:08 434.975-435.025
UNISAT 6 28 Jun 01:26:44 01:28:45 13° 300° (WNW) 01:30:44 437.425
BEESAT 28 Jun 01:27:30 01:30:07 15° 60° (ENE) 01:32:44 436.000
ITUPSAT 1 28 Jun 01:27:59 01:30:36 15° 60° (ENE) 01:33:13 437.325
BUGSAT 1 28 Jun 01:33:10 01:37:16 78° 102° (ESE) 01:41:24 437.445
SO-50 28 Jun 01:41:21 01:46:02 75° 237° (WSW) 01:50:32 436.795
NANOSAT C BR1 28 Jun 01:48:34 01:52:19 31° 291° (WNW) 01:56:05 145.865
Cosmos 2504 28 Jun 01:49:48 01:58:42 68° 78° (ENE) 02:07:14 435.465 / 435.565
QB50P1 28 Jun 01:51:10 01:54:49 28° 292° (WNW) 01:58:28 145.935-145.965
POPSAT HIP 1 28 Jun 01:54:21 01:57:56 27° 292° (WNW) 02:01:32 437.405
PCSat 28 Jun 02:01:19 02:05:11 20° 106° (ESE) 02:09:03 145.827
QB50P2 28 Jun 02:06:53 02:09:57 20° 295° (WNW) 02:13:01 145.880/145.840
YUBILEINY 28 Jun 02:06:54 02:14:45 38° 275° (W) 02:22:36 435.215
POLYITAN 1 28 Jun 02:09:31 02:12:33 19° 295° (WNW) 02:15:36 437.675
DUCHIFAT 1 28 Jun 02:10:01 02:13:11 21° 294° (WNW) 02:16:21 145.980
Oscar 19 28 Jun 02:17:27 02:22:08 35° 97° (E) 02:26:48 437.125/150
Gurwin Techsat 1B 28 Jun 02:28:34 02:32:28 20° 92° (E) 02:36:21 435.225
BEESAT 3 28 Jun 02:29:12 02:31:17 14° 110° (ESE) 02:33:24 437.485
TISAT 1 28 Jun 02:34:28 02:37:54 25° 265° (W) 02:41:21 437.305
SWISSCUBE 28 Jun 02:37:08 02:41:54 72° 73° (ENE) 02:46:43 437.505
JAS-2 28 Jun 02:52:58 02:58:27 47° 292° (WNW) 03:03:29 435.910
BEESAT 28 Jun 03:02:33 03:07:19 72° 258° (WSW) 03:12:07 436.000
ITUPSAT 1 28 Jun 03:03:03 03:07:50 73° 256° (WSW) 03:12:40 437.325
BEESAT 2 28 Jun 03:04:42 03:07:31 19° 112° (ESE) 03:10:21 435.950
BUGSAT 1 28 Jun 03:11:18 03:12:03 10° 300° (WNW) 03:12:47 437.445
Cosmos 2491 28 Jun 03:18:39 03:26:03 30° 294° (WNW) 03:33:29 435.465 / 435.565
PCSat 28 Jun 03:42:43 03:48:04 62° 304° (NW) 03:53:29 145.827
O/OREOS (USA 219) 28 Jun 03:43:56 03:48:25 83° 114° (ESE) 03:52:55 437.305
Cosmos 2504 28 Jun 03:44:11 03:51:19 28° 279° (W) 03:58:16 435.465 / 435.565
AO-7 28 Jun 03:46:18 03:52:12 21° 91° (E) 03:58:02 29.400- 29.500
MOZHAYETS 4 28 Jun 03:48:35 03:52:51 38° 70° (ENE) 03:57:08
Oscar 19 28 Jun 03:56:55 04:01:22 30° 294° (WNW) 04:05:47 437.125/150
KKS-1 28 Jun 04:03:24 04:07:45 61° 73° (ENE) 04:12:08 437.445
BEESAT 3 28 Jun 04:04:41 04:08:31 55° 307° (NW) 04:12:25 437.485
Gurwin Techsat 1B 28 Jun 04:07:33 04:12:45 55° 289° (WNW) 04:17:55 435.225
GONETS M04 28 Jun 04:12:55 04:16:57 14° 54° (NE) 04:21:00
ITAMSAT 1 28 Jun 04:17:11 04:22:26 70° 103° (ESE) 04:27:38 435.822/435.867
SWISSCUBE 28 Jun 04:18:00 04:20:12 13° 271° (W) 04:22:24 437.505
STARS 28 Jun 04:37:28 04:41:47 71° 74° (ENE) 04:46:09 437.465
Cosmos 2499 28 Jun 04:37:37 04:41:29 13° 53° (NE) 04:45:16 435.465 / 435.565
BEESAT 2 28 Jun 04:41:17 04:45:04 42° 309° (NW) 04:48:53 435.950
AIST 1 28 Jun 05:06:39 05:10:56 83° 263° (W) 05:15:10
CUBESAT XI-V 28 Jun 05:14:19 05:18:35 36° 69° (ENE) 05:22:53 437.345
AIST 2 28 Jun 05:18:02 05:21:31 27° 115° (ESE) 05:25:03 435.215
HORYU 2 28 Jun 05:19:33 05:22:39 18° 93° (E) 05:25:44 437.375
O/OREOS (USA 219) 28 Jun 05:26:20 05:28:27 13° 311° (NW) 05:30:34 437.305
MOZHAYETS 4 28 Jun 05:26:26 05:30:07 23° 267° (W) 05:33:49
PCSat 28 Jun 05:29:51 05:32:37 14° 326° (NW) 05:35:23 145.827
AO-85 28 Jun 05:32:52 05:35:51 16° 35° (NE) 05:38:41 145.980
AO-7 28 Jun 05:37:30 05:45:56 87° 290° (WNW) 05:54:19 29.400- 29.500
KKS-1 28 Jun 05:42:34 05:44:43 13° 270° (W) 05:46:53 437.445
ITAMSAT 1 28 Jun 05:58:00 06:01:19 17° 300° (WNW) 06:04:38 435.822/435.867
GONETS M04 28 Jun 06:07:08 06:15:49 64° 78° (ENE) 06:24:29
NOAA 18 28 Jun 06:11:00 06:12:10 11° 87° (E) 06:13:18 137.9125
STARS 28 Jun 06:17:26 06:18:38 11° 271° (W) 06:19:52 437.465
Cubesat XI-IV 28 Jun 06:20:40 06:22:48 12° 88° (E) 06:24:55 437.490
STRAND 1 28 Jun 06:21:20 06:24:28 16° 60° (ENE) 06:27:36 437.568
CUSAT 1 28 Jun 06:25:45 06:27:33 11° 81° (E) 06:29:18 437.405
Cosmos 2499 28 Jun 06:28:05 06:36:50 60° 76° (ENE) 06:45:03 435.465 / 435.565
LilacSat-2 28 Jun 06:50:29 06:53:17 19° 93° (E) 06:56:05 437.200
CUBESAT XI-V 28 Jun 06:52:09 06:56:02 25° 266° (W) 06:59:55 437.345
CUTE-I 28 Jun 06:53:24 06:57:50 26° 94° (E) 07:02:14 437.470
HORYU 2 28 Jun 06:55:08 06:59:26 46° 289° (WNW) 07:03:44 437.375
AIST 2 28 Jun 06:56:11 06:59:55 32° 313° (NW) 07:03:41 435.215
BRITE-PL 28 Jun 07:01:08 07:04:58 35° 97° (E) 07:08:49 437.365/2234.400
AO-85 28 Jun 07:12:28 07:17:03 87° 241° (WSW) 07:21:13 145.980
NOAA 15 28 Jun 07:23:04 07:28:18 63° 102° (ESE) 07:33:29 137.62
AO-7 28 Jun 07:31:34 07:37:36 23° 310° (NW) 07:43:38 29.400- 29.500
GOMX 1 28 Jun 07:37:27 07:41:24 40° 98° (E) 07:45:30 467.674
PHONESAT 2.4 28 Jun 07:39:39 07:41:50 18° 156° (SSE) 07:44:01 2401.200-2431.200
HO-68 28 Jun 07:42:33 07:43:14 10° 84° (E) 07:43:54 435.675
NOAA 18 28 Jun 07:48:03 07:53:38 81° 104° (ESE) 07:59:12 137.9125
STRAND 1 28 Jun 07:57:55 08:03:03 72° 258° (WSW) 08:08:13 437.568
Cubesat XI-IV 28 Jun 07:58:09 08:03:34 88° 286° (WNW) 08:08:58 437.490
CUSAT 1 28 Jun 08:01:05 08:08:46 63° 96° (E) 08:15:15 437.405
CINEMA 3 28 Jun 08:04:29 08:06:06 12° 89° (E) 08:07:43 145.822/145.860
GONETS M04 28 Jun 08:04:54 08:11:57 29° 278° (W) 08:19:03
LilacSat-2 28 Jun 08:24:10 08:27:40 33° 290° (WNW) 08:31:10 437.200
